Regional Weather Roundup
Issued by NWS Mt. Holly, NJ

Home | Current Version | Previous Version | Text Only | Print | Product List | Glossary On
Versions: 1 2 3 4 5 6 7 8 9 10 11 12 13 14 15 16 17 18 19 20 21 22 23 24 25 26 27 28 29 30 31 32 33 34 35 36 37 38 39 40 41 42 43 44 45 46 47 48 49 50
000
ASUS41 KPHI 232110
RWRPHI

REGIONAL WEATHER ROUNDUP
NATIONAL WEATHER SERVICE MOUNT HOLLY NJ
500 PM EDT TUE SEP 23 2014

NOTE:  "FAIR" INDICATES FEW OR NO CLOUDS BELOW 12,000 FEET WITH NO
SIGNIFICANT WEATHER AND/OR OBSTRUCTIONS TO VISIBILITY.

 * = STATION DOES NOT REPORT PRECIPITATION (E.G. RAIN, SNOW, ETC.)
        OR FOG.

NJZ015>026-232200-
SOUTHERN NEW JERSEY

CITY           SKY/WX    TMP DP  RH WIND       PRES   REMARKS
POMONA         CLOUDY    64  50  60 SE7       30.32S
RIO GRANDE*    CLOUDY    64  46  52 NE5       30.34S
MILLVILLE      CLOUDY    65  47  52 CALM      30.32R
WRIGHTSTOWN    MOSUNNY   69  45  41 N1        30.29S
MOUNT HOLLY    PTSUNNY   70  44  39 N3        30.31S
TRENTON        SUNNY     71  41  33 N5        30.30F

$$
NJZ001>014-232200-
NORTHERN NEW JERSEY

CITY           SKY/WX    TMP DP  RH WIND       PRES   REMARKS
SUSSEX         SUNNY     74  47  38 VRB3      30.30F
ANDOVER*         N/A     72  43  35 VRB3      30.31S
MORRISTOWN     MOSUNNY   73  43  33 SE3       30.30S
NEWARK         MOSUNNY   73  39  29 VRB6      30.30S
TETERBORO      SUNNY     75  39  27 CALM      30.28F
CALDWELL       SUNNY     72  42  34 CALM      30.30S
SOMERVILLE     SUNNY     73  43  33 CALM      30.29S
TOMS RIVER*    MOSUNNY   66  48  52 SE5       30.32S

$$
PAZ043-044-047-054-055-060>062-066>071-232200-
EASTERN PENNSYLVANIA

CITY           SKY/WX    TMP DP  RH WIND       PRES   REMARKS
PHILADELPHIA   PTSUNNY   72  44  36 SE3       30.31F
NORTH PHILA    MOSUNNY   73  39  29 E3        30.32F
BLUE BELL      SUNNY     72  43  35 CALM      30.30F
DOYLESTOWN     SUNNY     70  42  36 VRB3      30.30F
QUAKERTOWN*    SUNNY     72  45  37 NW5       30.32S
POTTSTOWN      SUNNY     70  43  37 CALM      30.32F
LANCASTER      SUNNY     69  42  37 CALM      30.31F
COATESVILLE    SUNNY     66  46  48 E5        30.33S
READING        SUNNY     72  43  35 N6        30.30F
ALLENTOWN      SUNNY     73  42  32 CALM      30.31F
MOUNT POCONO   SUNNY     69  45  41 N6        30.34S
HAZLETON       SUNNY     66  45  45 N3        30.37S
WILKES BARRE   SUNNY     70  45  40 VRB3      30.33S

$$
DEZALL-MDZ008-012-015-019-020-232200-
DELAWARE AND EASTERN MARYLAND

CITY           SKY/WX    TMP DP  RH WIND       PRES   REMARKS
WILMINGTON     MOSUNNY   69  44  40 E5        30.32S
DOVER          CLOUDY    64  49  58 E6        30.30F
GEORGETOWN     CLOUDY    63  44  50 E12       30.32F
EASTON         PTSUNNY   70  48  46 NE6       30.34F
PATUXENT       MOSUNNY   66  44  45 NE8       30.32R
OCEAN CITY     CLOUDY    63  47  55 NE6       30.32S
WALLOPS ISLAND CLOUDY    64  49  57 E7        30.32S
CAMBRIDGE      CLOUDY    70  43  37 E6        30.31S
SALISBURY      CLOUDY    66  47  50 NE7       30.32R

$$
PAZ001-021-NYZ056-072-MDZ011-DCZ001-232200-
OTHER NEARBY LOCATIONS

CITY           SKY/WX    TMP DP  RH WIND       PRES   REMARKS
HARRISBURG     MOSUNNY   72  50  45 CALM      30.30F
STATE COLLEGE  SUNNY     66  48  52 CALM      30.34S
WILLIAMSPORT   SUNNY     71  47  42 CALM      30.32S
BINGHAMTON     SUNNY     66  49  54 SW6       30.35R
NEW YORK CITY  SUNNY     70  42  36 VRB3      30.33S
BALTIMORE      PTSUNNY   69  44  40 E6        30.30S
WASHINGTON DC  PTSUNNY   73  40  30 NE6       30.31F

$$



USA.gov is the U.S. government's official web portal to all federal, state and local government web resources and services.